IZ1GCT Weather Reports


Display with metric or nautical units.
time (UTC)temp
F
wind
direction
speed
MPH
gust
MPH
rain 1hr
in
rain 24hr
in
rain mn
in
humidity
%
barometer
mb
20200806075839 79 333 1.0 2.0 0.00 0.00 0.00 44 1010.5
20200806075345 79 65 1.0 2.0 0.00 0.00 0.00 44 1010.6
20200806074838 79 56 2.0 3.0 0.00 0.00 0.00 44 1010.7
20200806074339 78 133 1.0 2.0 0.00 0.00 0.00 45 1010.6
20200806073839 78 12 1.0 3.0 0.00 0.00 0.00 47 1010.7
20200806073337 78 34 1.0 3.0 0.00 0.00 0.00 46 1010.7
20200806072839 78 4 1.0 3.0 0.00 0.00 0.00 46 1010.6
20200806072338 79 275 0.0 1.0 0.00 0.00 0.00 47 1010.8
20200806071838 79 135 1.0 2.0 0.00 0.00 0.00 48 1010.7
20200806071340 78 240 0.0 1.0 0.00 0.00 0.00 48 1010.6
20200806070839 77 90 0.0 2.0 0.00 0.00 0.00 50 1010.6
20200806070338 76 14 1.0 1.0 0.00 0.00 0.00 51 1010.5
20200806065838 76 81 0.0 1.0 0.00 0.00 0.00 53 1010.5
20200806065337 75 341 0.0 1.0 0.00 0.00 0.00 54 1010.2
20200806064839 75 58 1.0 1.0 0.00 0.00 0.00 54 1010.2
20200806064338 76 317 1.0 2.0 0.00 0.00 0.00 51 1010.3
20200806063840 76 45 0.0 1.0 0.00 0.00 0.00 53 1010.3
20200806063338 77 234 0.0 1.0 0.00 0.00 0.00 54 1010.4
20200806062846 75 225 0.0 0.0 0.00 0.00 0.00 58 1010.2
20200806062340 73 315 1.0 2.0 0.00 0.00 0.00 59 1010.2
20200806061839 72 315 0.0 1.0 0.00 0.00 0.00 61 1010.2
20200806061338 73 342 1.0 1.0 0.00 0.00 0.00 61 1010.3
20200806060839 72 270 0.0 1.0 0.00 0.00 0.00 63 1010.2
20200806060339 70 135 0.0 1.0 0.00 0.00 0.00 64 1010.2
20200806055838 68 166 0.0 2.0 0.00 0.00 0.00 66 1010.1
20200806055339 67 166 1.0 2.0 0.00 0.00 0.00 65 1010.1
20200806054838 67 180 1.0 3.0 0.00 0.00 0.00 69 1010.1
20200806054338 66 225 0.0 1.0 0.00 0.00 0.00 73 1010.1
20200806053839 63 137 0.0 1.0 0.00 0.00 0.00 75 1010.1
20200806053338 62 135 1.0 2.0 0.00 0.00 0.00 77 1010.0
20200806052839 60 315 1.0 1.0 0.00 0.00 0.00 84 1010.0
20200806052338 58 180 0.0 0.0 0.00 0.00 0.00 85 1010.0
20200806051838 57 180 0.0 0.0 0.00 0.00 0.00 85 1010.0
20200806051337 57 158 0.0 1.0 0.00 0.00 0.00 86 1009.9
20200806050838 56 270 0.0 1.0 0.00 0.00 0.00 85 1009.9
20200806050338 56 153 0.0 1.0 0.00 0.00 0.00 85 1010.0
20200806045839 56 135 0.0 1.0 0.00 0.00 0.00 85 1009.7
20200806045338 56 195 0.0 1.0 0.00 0.00 0.00 85 1009.8
20200806044838 56 180 2.0 3.0 0.00 0.00 0.00 85 1009.8
20200806044338 56 180 0.0 1.0 0.00 0.00 0.00 84 1009.8
20200806043839 57 312 0.0 1.0 0.00 0.00 0.00 84 1009.8
20200806043338 57 90 0.0 0.0 0.00 0.00 0.00 84 1009.7
20200806042839 57 27 1.0 2.0 0.00 0.00 0.00 85 1009.7
20200806042338 56 233 0.0 2.0 0.00 0.00 0.00 86 1009.5
20200806041839 56 137 1.0 2.0 0.00 0.00 0.00 85 1009.6
20200806041338 56 180 1.0 3.0 0.00 0.00 0.00 85 1009.5
20200806040838 56 260 0.0 1.0 0.00 0.00 0.00 84 1009.5
20200806040338 56 225 0.0 0.0 0.00 0.00 0.00 84 1009.5
20200806035839 57 185 0.0 0.0 0.00 0.00 0.00 84 1009.4
20200806035337 57 180 0.0 1.0 0.00 0.00 0.00 84 1009.4
20200806034837 57 135 1.0 2.0 0.00 0.00 0.00 83 1009.3
20200806034339 57 180 0.0 1.0 0.00 0.00 0.00 83 1009.3
20200806033839 57 135 0.0 1.0 0.00 0.00 0.00 82 1009.3
20200806033338 57 116 1.0 1.0 0.00 0.00 0.00 82 1009.2
20200806032839 57 315 0.0 1.0 0.00 0.00 0.00 82 1009.2
20200806032339 58 212 0.0 0.0 0.00 0.00 0.00 82 1009.1
20200806031844 58 180 0.0 0.0 0.00 0.00 0.00 82 1009.2
20200806031337 58 180 3.0 5.0 0.00 0.00 0.00 82 1009.2
20200806030837 58 180 2.0 3.0 0.00 0.00 0.00 83 1009.2
20200806030341 58 180 0.0 2.0 0.00 0.00 0.00 82 1009.2
20200806025841 58 135 0.0 1.0 0.00 0.00 0.00 82 1009.3
20200806025338 58 135 1.0 2.0 0.00 0.00 0.00 83 1009.2
20200806024839 58 180 0.0 1.0 0.00 0.00 0.00 81 1009.2
20200806024337 58 270 0.0 0.0 0.00 0.00 0.00 81 1009.3
20200806023837 58 135 0.0 1.0 0.00 0.00 0.00 81 1009.3
20200806023346 58 236 0.0 2.0 0.00 0.00 0.00 81 1009.4
20200806022839 59 135 1.0 3.0 0.00 0.00 0.00 80 1009.3
20200806022339 59 330 0.0 1.0 0.00 0.00 0.00 79 1009.2
20200806021837 59 236 0.0 1.0 0.00 0.00 0.00 80 1009.2
20200806021338 59 212 1.0 5.0 0.00 0.00 0.00 80 1009.3
20200806020839 59 180 2.0 3.0 0.00 0.00 0.00 80 1009.3
20200806020338 59 225 0.0 5.0 0.00 0.00 0.00 80 1009.3
20200806015837 59 298 1.0 2.0 0.00 0.00 0.00 81 1009.3
20200806015339 59 278 2.0 3.0 0.00 0.00 0.00 81 1009.2
20200806014838 59 330 1.0 2.0 0.00 0.00 0.00 81 1009.2
20200806014337 59 180 0.0 1.0 0.00 0.00 0.00 81 1009.2
20200806013838 59 180 1.0 3.0 0.00 0.00 0.00 82 1009.3
20200806013339 58 180 0.0 5.0 0.00 0.00 0.00 82 1009.4
20200806012838 59 180 1.0 2.0 0.00 0.00 0.00 80 1009.4
20200806012337 59 180 1.0 3.0 0.00 0.00 0.00 80 1009.4
20200806011838 59 180 0.0 2.0 0.00 0.00 0.00 78 1009.3
20200806011337 59 180 0.0 1.0 0.00 0.00 0.00 77 1009.4
20200806010838 60 225 1.0 2.0 0.00 0.00 0.00 77 1009.3
20200806010339 60 225 0.0 1.0 0.00 0.00 0.00 76 1009.1
20200806005838 60 161 0.0 0.0 0.00 0.00 0.00 76 1009.2
20200806005338 61 194 0.0 3.0 0.00 0.00 0.00 76 1009.3
20200806004838 61 106 1.0 2.0 0.00 0.00 0.00 75 1009.1
20200806004339 61 159 1.0 2.0 0.00 0.00 0.00 75 1009.1
20200806003838 61 103 1.0 1.0 0.00 0.00 0.00 75 1009.1
20200806003340 61 155 3.0 5.0 0.00 0.00 0.00 75 1009.0
20200806002838 61 16 0.0 2.0 0.00 0.00 0.00 74 1009.0
20200806002339 62 180 0.0 2.0 0.00 0.00 0.00 72 1009.0
20200806001837 62 225 0.0 1.0 0.00 0.00 0.00 72 1009.0
20200806001338 62 135 2.0 5.0 0.00 0.00 0.00 72 1009.0
20200806000842 62 137 1.0 3.0 0.00 0.00 0.00 73 1009.0
20200806000339 62 180 1.0 2.0 0.00 0.00 0.00 74 1008.8
20200805235839 62 124 1.0 5.0 0.00 0.00 0.00 74 1009.1
20200805235339 62 160 1.0 3.0 0.00 0.00 0.00 73 1008.9
20200805234839 62 186 0.0 2.0 0.00 0.00 0.00 72 1008.9
20200805234339 63 180 1.0 3.0 0.00 0.00 0.00 71 1008.9
20200805233838 63 69 0.0 1.0 0.00 0.00 0.00 71 1008.9
20200805233337 63 201 2.0 8.0 0.00 0.00 0.00 71 1008.9
20200805232837 63 180 1.0 3.0 0.00 0.00 0.00 71 1008.9
20200805232338 63 155 1.0 5.0 0.00 0.00 0.00 71 1008.9
20200805231838 63 135 2.0 5.0 0.00 0.00 0.00 71 1008.9
20200805231337 63 197 1.0 2.0 0.00 0.00 0.00 71 1009.0
20200805230839 63 117 0.0 6.0 0.00 0.00 0.00 70 1008.9
20200805230338 64 164 2.0 5.0 0.00 0.00 0.00 70 1008.8
20200805225838 64 270 0.0 1.0 0.00 0.00 0.00 70 1008.9
20200805225339 64 142 1.0 3.0 0.00 0.00 0.00 70 1009.0
20200805224844 64 232 1.0 3.0 0.00 0.00 0.00 70 1008.9
20200805224339 63 180 1.0 2.0 0.00 0.00 0.00 71 1008.9
20200805223839 63 180 2.0 5.0 0.00 0.00 0.00 71 1008.9
20200805223338 63 180 0.0 2.0 0.00 0.00 0.00 71 1008.9
20200805222838 63 266 1.0 3.0 0.00 0.00 0.00 71 1008.9
20200805222338 64 144 2.0 5.0 0.00 0.00 0.00 71 1008.8
20200805221837 64 270 0.0 1.0 0.00 0.00 0.00 70 1008.8
20200805221338 64 180 1.0 3.0 0.00 0.00 0.00 69 1008.8
20200805220837 65 227 1.0 3.0 0.00 0.00 0.00 69 1008.7
20200805220338 65 205 1.0 2.0 0.00 0.00 0.00 68 1008.6
20200805215839 65 244 1.0 3.0 0.00 0.00 0.00 68 1008.8
20200805215338 65 180 2.0 6.0 0.00 0.00 0.00 68 1008.7
20200805214838 64 180 1.0 5.0 0.00 0.00 0.00 69 1008.9
20200805214337 65 158 1.0 5.0 0.00 0.00 0.00 69 1008.6
20200805213837 65 225 0.0 1.0 0.00 0.00 0.00 68 1008.5
20200805213338 65 236 1.0 1.0 0.00 0.00 0.00 69 1008.5
20200805212839 65 180 2.0 6.0 0.00 0.00 0.00 69 1008.6
20200805212338 65 180 1.0 3.0 0.00 0.00 0.00 69 1008.7
20200805211837 65 189 1.0 3.0 0.00 0.00 0.00 69 1008.6
20200805211339 65 180 2.0 6.0 0.00 0.00 0.00 68 1008.7
20200805210841 65 180 2.0 5.0 0.00 0.00 0.00 67 1008.5
20200805210337 65 135 1.0 3.0 0.00 0.00 0.00 67 1008.6
20200805205839 66 135 2.0 3.0 0.00 0.00 0.00 67 1008.6
20200805205339 65 184 1.0 3.0 0.00 0.00 0.00 68 1008.6
20200805204839 65 227 0.0 2.0 0.00 0.00 0.00 68 1008.6
20200805204339 65 154 1.0 3.0 0.00 0.00 0.00 68 1008.4
20200805203838 65 174 0.0 3.0 0.00 0.00 0.00 68 1008.6
20200805203338 65 248 0.0 3.0 0.00 0.00 0.00 68 1008.5
20200805202837 66 180 1.0 2.0 0.00 0.00 0.00 68 1008.5
20200805202337 66 180 1.0 3.0 0.00 0.00 0.00 67 1008.2
20200805201837 66 180 1.0 3.0 0.00 0.00 0.00 67 1008.3
20200805201338 66 180 0.0 3.0 0.00 0.00 0.00 66 1008.3
20200805200838 67 172 2.0 3.0 0.00 0.00 0.00 66 1008.1
20200805200340 67 180 1.0 2.0 0.00 0.00 0.00 65 1008.2
20200805195840 67 196 0.0 3.0 0.00 0.00 0.00 65 1008.1
20200805195339 67 180 1.0 3.0 0.00 0.00 0.00 65 1008.0
20200805194837 68 143 1.0 2.0 0.00 0.00 0.00 64 1007.9
20200805194338 68 199 0.0 2.0 0.00 0.00 0.00 63 1007.8
20200805193841 69 180 0.0 0.0 0.00 0.00 0.00 62 1007.7
20200805193338 69 135 1.0 2.0 0.00 0.00 0.00 62 1007.5
20200805192838 69 180 0.0 1.0 0.00 0.00 0.00 61 1007.7
20200805192338 70 212 0.0 3.0 0.00 0.00 0.00 60 1007.5
20200805191838 70 180 0.0 2.0 0.00 0.00 0.00 59 1007.5
20200805191337 71 189 0.0 1.0 0.00 0.00 0.00 58 1007.4
20200805190837 71 180 1.0 3.0 0.00 0.00 0.00 57 1007.3
20200805190339 72 270 0.0 1.0 0.00 0.00 0.00 56 1007.2
20200805185839 72 225 0.0 1.0 0.00 0.00 0.00 55 1007.2
20200805185337 72 273 0.0 1.0 0.00 0.00 0.00 55 1007.0
20200805184839 73 149 0.0 1.0 0.00 0.00 0.00 54 1007.0
20200805184338 73 135 2.0 6.0 0.00 0.00 0.00 53 1006.8
20200805183838 74 163 2.0 3.0 0.00 0.00 0.00 53 1006.8
20200805183338 74 135 3.0 6.0 0.00 0.00 0.00 52 1006.7
20200805182839 75 107 2.0 5.0 0.00 0.00 0.00 52 1006.9
20200805182340 75 146 2.0 3.0 0.00 0.00 0.00 50 1006.7
20200805181840 76 163 2.0 6.0 0.00 0.00 0.00 47 1006.6
20200805181338 77 125 1.0 3.0 0.00 0.00 0.00 45 1006.7
20200805180838 78 146 1.0 3.0 0.00 0.00 0.00 45 1006.5
20200805180337 78 117 1.0 2.0 0.00 0.00 0.00 44 1006.5
20200805175838 79 220 1.0 5.0 0.00 0.00 0.00 43 1006.5
20200805175338 80 173 2.0 3.0 0.00 0.00 0.00 42 1006.5
20200805174841 80 102 3.0 8.0 0.00 0.00 0.00 41 1006.5
20200805174338 80 113 3.0 6.0 0.00 0.00 0.00 41 1006.4
20200805173838 80 96 5.0 8.0 0.00 0.00 0.00 41 1006.2
20200805173337 81 209 2.0 8.0 0.00 0.00 0.00 40 1006.3
20200805172839 81 135 2.0 7.0 0.00 0.00 0.00 40 1006.2
20200805172337 81 104 5.0 7.0 0.00 0.00 0.00 39 1006.1
20200805171839 82 80 3.0 8.0 0.00 0.00 0.00 39 1006.1
20200805171338 82 95 6.0 10.0 0.00 0.00 0.00 39 1006.2
20200805170837 82 133 3.0 8.0 0.00 0.00 0.00 39 1006.0
20200805170339 82 69 2.0 5.0 0.00 0.00 0.00 40 1005.8
20200805165840 82 101 3.0 6.0 0.00 0.00 0.00 39 1005.9
20200805165339 83 104 2.0 8.0 0.00 0.00 0.00 39 1005.7
20200805164837 82 107 3.0 7.0 0.00 0.00 0.00 40 1005.8
20200805164338 83 135 5.0 8.0 0.00 0.00 0.00 39 1005.7
20200805163839 82 40 2.0 7.0 0.00 0.00 0.00 40 1005.6
20200805163339 83 104 5.0 12.0 0.00 0.00 0.00 39 1005.8
20200805162838 83 123 3.0 10.0 0.00 0.00 0.00 38 1005.7
20200805162337 82 80 6.0 13.0 0.00 0.00 0.00 38 1005.6
20200805161837 83 90 7.0 13.0 0.00 0.00 0.00 38 1005.6
20200805161338 82 126 5.0 12.0 0.00 0.00 0.00 39 1005.7
20200805160840 82 106 6.0 13.0 0.00 0.00 0.00 39 1005.5
20200805160338 82 88 3.0 8.0 0.00 0.00 0.00 39 1005.5
20200805155839 82 90 8.0 12.0 0.00 0.00 0.00 38 1005.4
20200805155339 83 110 6.0 10.0 0.00 0.00 0.00 38 1005.4
20200805154837 82 135 7.0 13.0 0.00 0.00 0.00 39 1005.2
20200805154337 82 135 7.0 13.0 0.00 0.00 0.00 39 1005.4
20200805153839 83 90 7.0 13.0 0.00 0.00 0.00 38 1005.4
20200805153338 83 98 5.0 9.0 0.00 0.00 0.00 38 1005.3
20200805152839 82 99 7.0 13.0 0.00 0.00 0.00 38 1005.1
20200805152337 82 315 5.0 10.0 0.00 0.00 0.00 38 1005.2
20200805151838 82 90 7.0 10.0 0.00 0.00 0.00 37 1005.1
20200805151342 82 120 5.0 13.0 0.00 0.00 0.00 39 1005.2
20200805150841 82 90 9.0 18.0 0.00 0.00 0.00 37 1005.2
20200805150342 83 121 9.0 15.0 0.00 0.00 0.00 37 1005.1
20200805145838 83 157 7.0 15.0 0.00 0.00 0.00 38 1005.1
20200805145339 83 117 7.0 12.0 0.00 0.00 0.00 37 1005.1
20200805144840 83 117 7.0 12.0 0.00 0.00 0.00 37 1005.1
20200805144337 83 117 7.0 12.0 0.00 0.00 0.00 37 1005.1
20200805143838 83 90 7.0 16.0 0.00 0.00 0.00 38 1005.0
20200805143338 82 135 7.0 13.0 0.00 0.00 0.00 38 1005.0
20200805142838 82 90 8.0 16.0 0.00 0.00 0.00 38 1005.0
20200805142338 82 135 7.0 14.0 0.00 0.00 0.00 38 1005.0
20200805141838 82 111 9.0 16.0 0.00 0.00 0.00 38 1005.1
20200805141338 83 84 7.0 15.0 0.00 0.00 0.00 37 1005.0
20200805140840 83 101 5.0 14.0 0.00 0.00 0.00 37 1004.9
20200805140338 83 0 2.0 7.0 0.00 0.00 0.00 37 1005.0
20200805135837 83 112 6.0 10.0 0.00 0.00 0.00 37 1004.9
20200805135338 83 116 5.0 12.0 0.00 0.00 0.00 37 1005.1
20200805134838 83 81 6.0 10.0 0.00 0.00 0.00 37 1005.2
20200805134339 83 68 7.0 16.0 0.00 0.00 0.00 36 1005.2
20200805133838 83 141 8.0 15.0 0.00 0.00 0.00 36 1005.0
20200805133338 83 20 5.0 12.0 0.00 0.00 0.00 36 1005.0
20200805132838 83 98 3.0 8.0 0.00 0.00 0.00 36 1005.0
20200805132344 83 125 7.0 13.0 0.00 0.00 0.00 37 1005.1
20200805131839 83 101 5.0 10.0 0.00 0.00 0.00 36 1005.1
20200805131338 83 108 6.0 13.0 0.00 0.00 0.00 34 1005.0
20200805130838 83 135 5.0 13.0 0.00 0.00 0.00 37 1005.0
20200805130338 83 90 8.0 13.0 0.00 0.00 0.00 34 1005.0
20200805125839 84 135 5.0 10.0 0.00 0.00 0.00 35 1005.1
20200805125338 84 135 7.0 12.0 0.00 0.00 0.00 33 1005.1
20200805124838 84 79 2.0 7.0 0.00 0.00 0.00 35 1004.9
20200805124338 83 95 5.0 10.0 0.00 0.00 0.00 35 1005.0
20200805123843 83 123 5.0 10.0 0.00 0.00 0.00 34 1005.0
20200805123338 84 102 5.0 8.0 0.00 0.00 0.00 33 1005.1
20200805122839 83 100 3.0 7.0 0.00 0.00 0.00 35 1005.1
20200805122338 83 126 6.0 10.0 0.00 0.00 0.00 35 1005.1
20200805121838 82 100 2.0 10.0 0.00 0.00 0.00 36 1005.2
20200805121338 82 106 3.0 8.0 0.00 0.00 0.00 37 1005.3
20200805120841 82 229 3.0 8.0 0.00 0.00 0.00 37 1005.2
20200805120338 82 135 6.0 10.0 0.00 0.00 0.00 37 1005.3
20200805115840 82 92 5.0 13.0 0.00 0.00 0.00 38 1005.4
20200805115338 82 106 5.0 10.0 0.00 0.00 0.00 39 1005.5
20200805114837 82 90 6.0 13.0 0.00 0.00 0.00 38 1005.6
20200805114338 82 17 7.0 12.0 0.00 0.00 0.00 37 1005.5
20200805113840 82 134 6.0 10.0 0.00 0.00 0.00 37 1005.6
20200805113340 82 117 5.0 12.0 0.00 0.00 0.00 37 1005.7
20200805112838 82 108 6.0 10.0 0.00 0.00 0.00 37 1005.7
20200805112341 82 135 7.0 12.0 0.00 0.00 0.00 37 1005.8
20200805111838 81 175 2.0 10.0 0.00 0.00 0.00 38 1005.7
20200805111341 82 95 6.0 12.0 0.00 0.00 0.00 37 1005.8
20200805110838 81 71 2.0 10.0 0.00 0.00 0.00 35 1005.8
20200805110339 82 135 3.0 8.0 0.00 0.00 0.00 35 1005.9
20200805105839 81 104 3.0 7.0 0.00 0.00 0.00 37 1005.9
20200805105339 81 105 3.0 10.0 0.00 0.00 0.00 35 1005.8
20200805104838 80 119 5.0 7.0 0.00 0.00 0.00 35 1006.1
20200805104338 80 101 5.0 10.0 0.00 0.00 0.00 34 1006.1
20200805103839 81 118 5.0 13.0 0.00 0.00 0.00 36 1006.0
20200805103338 80 131 5.0 8.0 0.00 0.00 0.00 36 1006.0
20200805102838 80 59 5.0 13.0 0.00 0.00 0.00 37 1006.0
20200805102339 80 95 5.0 10.0 0.00 0.00 0.00 38 1006.1
20200805101838 79 135 3.0 7.0 0.00 0.00 0.00 38 1006.0
20200805101338 80 92 6.0 8.0 0.00 0.00 0.00 37 1006.0
20200805100838 80 329 3.0 7.0 0.00 0.00 0.00 35 1006.0
20200805100339 80 150 3.0 7.0 0.00 0.00 0.00 35 1006.2
20200805095837 80 128 5.0 9.0 0.00 0.00 0.00 35 1006.0
20200805095338 79 107 3.0 8.0 0.00 0.00 0.00 37 1006.1
20200805094839 79 45 5.0 8.0 0.00 0.00 0.00 36 1006.1
20200805094338 79 66 2.0 7.0 0.00 0.00 0.00 37 1006.1
20200805093840 79 135 3.0 7.0 0.00 0.00 0.00 37 1006.0
20200805093337 79 48 2.0 8.0 0.00 0.00 0.00 37 1006.1
20200805092845 78 62 2.0 7.0 0.00 0.00 0.00 37 1006.2
20200805092346 78 133 2.0 7.0 0.00 0.00 0.00 37 1006.3
20200805091846 78 73 3.0 6.0 0.00 0.00 0.00 36 1006.3
20200805091345 78 62 3.0 8.0 0.00 0.00 0.00 37 1006.2
20200805090845 78 25 3.0 7.0 0.00 0.00 0.00 36 1006.3
20200805090350 78 86 2.0 3.0 0.00 0.00 0.00 36 1006.3
20200805085845 78 32 3.0 7.0 0.00 0.00 0.00 35 1006.2
20200805085346 79 61 2.0 6.0 0.00 0.00 0.00 35 1006.3
20200805084846 80 135 2.0 5.0 0.00 0.00 0.00 34 1006.3
20200805084345 80 119 2.0 6.0 0.00 0.00 0.00 33 1006.3
20200805083847 79 135 2.0 3.0 0.00 0.00 0.00 33 1006.5
20200805083346 79 87 2.0 5.0 0.00 0.00 0.00 33 1006.4
20200805082847 79 287 1.0 3.0 0.00 0.00 0.00 34 1006.5
20200805082347 78 286 1.0 3.0 0.00 0.00 0.00 34 1006.3
20200805081846 77 289 1.0 3.0 0.00 0.00 0.00 34 1006.3
20200805081348 77 61 0.0 3.0 0.00 0.00 0.00 35 1006.4
20200805080845 78 56 2.0 3.0 0.00 0.00 0.00 34 1006.5
20200805080406 78 45 1.0 3.0 0.00 0.00 0.00 34 1006.5